Regional Weather Roundup
Issued by NWS

Current Version | Previous Version | Text Only | Print | Product List | Glossary On
Versions: 1 2 3 4 5 6 7 8 9 10 11 12 13 14 15 16 17 18 19 20 21 22 23 24 25 26 27 28 29 30 31 32 33 34 35 36 37 38 39 40 41 42 43 44 45 46 47 48 49 50
000
ASUS43 KDTX 251310
RWRMI
MICHIGAN HOURLY REGIONAL WEATHER ROUNDUP
NATIONAL WEATHER SERVICE DETROIT/PONTIAC MI
ISSUED BY NATIONAL WEATHER SERVICE GRAND RAPIDS MI
900 AM EDT SUN AUG 25 2019

NOTE: "FAIR" INDICATES FEW OR NO CLOUDS BELOW 12,000 FEET WITH NO
SIGNIFICANT WEATHER AND/OR OBSTRUCTION TO VISIBILITY.

MIZ047>049-052>055-059>063-066>070-074>076-081>083-251400-
SOUTHEAST LOWER MICHIGAN

CITY           SKY/WX    TMP DP  RH WIND       PRES   REMARKS
ADRIAN         FAIR      64  57  78 E6        30.23S
ALMA           FAIR      59  57  93 E7        30.26S
ANN ARBOR      FAIR      66  58  75 E7        30.23R
BAD AXE        FAIR      64  58  82 CALM      30.28S
DETROIT CITY   FAIR      67  59  75 E10       30.24S
DETROIT        FAIR      68  58  70 NE7       30.23S
FLINT          FAIR      64  56  75 E8        30.25S
GROSSE ILE     FAIR      66  58  74 E7        30.22S
HILLSDALE      FAIR      61  57  87 E7        30.21F
HOWELL         FAIR      65  57  76 E5        30.24S

CITY           SKY/WX    TMP DP  RH WIND       PRES   REMARKS
JACKSON        FAIR      63  56  78 NE6       30.23S
LANSING        CLOUDY    61  55  81 E6        30.25R
MASON          FAIR      61  55  81 E5        30.24S
MONROE         FAIR      67  61  80 NE5       30.21S
MT. CLEMENS    MOSUNNY   66  57  72 E7        30.26S
PONTIAC        FAIR      64  56  75 E8        30.24R
PORT HOPE        N/A     65  59  81 CALM      30.27S
PORT HURON     FAIR      66  54  63 E6        30.27S
TRI CITIES     FAIR      62  54  74 E6        30.26S
YPSILANTI      FAIR      68  59  73 NE8       30.24R
$$
MIZ043>046-050>051-056>058-064>065-071>073-077>080-251400-
SOUTHWEST LOWER MICHIGAN

CITY           SKY/WX    TMP DP  RH WIND       PRES   REMARKS
BATTLE CREEK   FAIR      60  55  83 E7        30.23R
BENTON HARBOR  FAIR      61  55  81 E6        30.19S
BIG RAPIDS     FAIR      57  55  90 CALM      30.26S
COLDWATER      FAIR      63  57  82 E8        30.21S
HOLLAND        FAIR      61  56  83 E8        30.22S
GRAND RAPIDS   PTSUNNY   60  55  83 E9        30.23S
KALAMAZOO      FAIR      63  55  75 E3        30.23R
MARSHALL       FAIR      61  57  88 E3        30.22F
MOUNT PLEASANT FAIR      56  56 100 CALM      30.25F
MUSKEGON       FAIR      62  54  74 E9        30.22F
STURGIS        FAIR      62  54  75 E7        30.20S
$$
MIZ016>042-251400-
NORTHERN LOWER MICHIGAN

CITY           SKY/WX    TMP DP  RH WIND       PRES   REMARKS
ALPENA         FAIR      60  52  74 CALM      30.29F
BEAVER ISLAND  FAIR      64  57  78 CALM      30.27S
BELLAIRE       FAIR      62  56  81 CALM      30.27F
CADILLAC       FAIR      60  56  87 CALM      30.26S
CHARLEVOIX     FAIR      63  54  73 SE5       30.30S
GAYLORD        FAIR      57  53  86 SE5       30.30R
HOUGHTON LAKE  FAIR      56  53  90 E5        30.28S
MANISTEE       FAIR      57  54  89 E7        30.24F
OSCODA         FAIR      61  58  88 CALM      30.28S
PELLSTON       FAIR      57  51  80 CALM      30.29S
TRAVERSE CITY  FAIR      61  54  77 CALM      30.26S
LUDINGTON      FAIR      59  56  89 E3        30.23F
$$
MIZ007>008-015-251400-
EASTERN UPPER MICHIGAN

CITY           SKY/WX    TMP DP  RH WIND       PRES   REMARKS
KINROSS        FAIR      59  55  87 SE7       30.30R
MACKINAC ISLAN FAIR      63  56  76 SE3       30.28S
NEWBERRY       FAIR      58  54  88 SE7       30.27F
S. S. MARIE    FAIR      58  54  86 VRB3      30.29S
$$
MIZ004>006-011>014-085-251400-
CENTRAL UPPER MICHIGAN

CITY           SKY/WX    TMP DP  RH WIND       PRES   REMARKS
MANISTIQUE     CLOUDY    66  60  80 S6        30.24S
ESCANABA       FAIR      57  55  93 CALM      30.23S
MENOMINEE      FAIR      66  60  81 S7        30.22S
SAWYER-GWINN   SUNNY     52  50  93 CALM      30.24R
$$
MIZ001>003-009>011-084-251400-
WESTERN UPPER MICHIGAN

CITY           SKY/WX    TMP DP  RH WIND       PRES   REMARKS
IRON MOUNTAIN  FAIR      53  49  86 CALM      30.22S
HOUGHTON       FAIR      58  52  80 SW7       30.20S
COPPER HARBOR    N/A     61  55  81 VRB5      30.20S
IRONWOOD       FAIR      57  52  83 S9        30.17F
$$

ABBREVIATIONS USED IN REMARKS
   TC - TEMPERATURE IN CELSIUS
  WCI - WIND CHILL INDEX
   HX - HEAT INDEX
  VSB - VISIBILITY




USA.gov is the U.S. government's official web portal to all federal, state and local government web resources and services.